Home   Weather   Witten   Past weeks

Flag for Germany Past Weather in Witten, North Rhine-Westphalia, Germany — Yesterday and Last 2 Weeks

Now
37 °F

Clear.


Feels Like: 37 °F
Forecast: 34 / 56 °F
Wind: 2 mph from North

Location: Duesseldorf

Current Time: Apr 24, 2017 at 1:42:40 am

Latest Report: Apr 24, 2017 at 1:20 am


Visibility: 10 mi

Pressure: 30.21 "Hg

Humidity: 87%

Dew Point: 34 °F

Location of WittenLocation

Past Weather in Witten — Graph

°F

Witten Temperature Yesterday

Maximum temperature yesterday: 52 °F (at 2:50 pm)
Minimum temperature yesterday: 37 °F (at 11:50 pm)
Average temperature yesterday: 44 °F

High & Low Weather Summary for the Past Weeks

 TemperatureHumidityPressure
High73 °F (Apr 9, 6:50 pm)100% (Apr 9, 2:20 am)30.63 "Hg (Apr 9, 2:20 am)
Low27 °F (Apr 20, 4:50 am)25% (Apr 9, 5:20 pm)29.92 "Hg (Apr 12, 5:20 pm)
Average47 °F69%30.21 "Hg
* Reported Apr 9 12:20 am — Apr 24 12:50 am, Witten, Weather by CustomWeather, © 2017

Note: Actual official high and low records may vary slightly from our data, if they occured in-between our weather recording intervals... More about our weather records

Advertising

Witten Weather History for the Previous 24 Hours

Scroll right to see more
 ConditionsComfort  
Time TempWeatherWind HumidityBarometerVisibility
12:50 am
Mon, Apr 24
36 °FPassing clouds.3 mph93%30.21 "HgN/A
12:20 am37 °FClear.2 mph93%30.21 "Hg10 mi
11:50 pm
Sun, Apr 23
37 °FClear.2 mph93%30.21 "Hg10 mi
11:20 pm39 °FPassing clouds.1 mph87%30.24 "HgN/A
10:50 pm41 °FPassing clouds.1 mph81%30.24 "HgN/A
10:20 pm43 °FPassing clouds.1 mph81%30.24 "HgN/A
9:50 pm45 °FPassing clouds.1 mph81%30.24 "HgN/A
9:20 pm46 °FPassing clouds.2 mph71%30.24 "HgN/A
8:50 pm46 °FPassing clouds.3 mph66%30.24 "HgN/A
8:20 pm46 °FPartly sunny.5 mph66%30.24 "HgN/A
7:50 pm46 °FPartly sunny.6 mph66%30.24 "HgN/A
7:20 pm48 °FPartly sunny.5 mph62%30.24 "HgN/A
6:50 pm48 °FBroken clouds.6 mph62%30.24 "HgN/A
6:20 pm48 °FSprinkles. Partly sunny.9 mph62%30.24 "HgN/A
5:50 pm50 °FScattered showers. Broken clouds.7 mph54%30.24 "HgN/A
5:20 pm52 °FScattered showers. Scattered clouds.9 mph50%30.27 "HgN/A
4:50 pm50 °FScattered clouds.10 mph54%30.27 "HgN/A
4:20 pm48 °FScattered showers. Partly sunny.14 mph58%30.27 "HgN/A
3:50 pm48 °FScattered showers. Broken clouds.10 mph58%30.27 "HgN/A
3:20 pm52 °FScattered showers. Partly sunny.14 mph47%30.27 "HgN/A
2:50 pm52 °FScattered showers. Broken clouds.10 mph50%30.27 "HgN/A
2:20 pm50 °FScattered showers. Broken clouds.13 mph50%30.27 "HgN/A
1:50 pm50 °FScattered showers. Broken clouds.13 mph54%30.30 "HgN/A
1:20 pm48 °FSprinkles. Partly sunny.10 mph54%30.30 "HgN/A
12:50 pm48 °FPartly sunny.9 mph54%30.30 "HgN/A
12:20 pm48 °FPartly sunny.10 mph54%30.30 "HgN/A
11:50 am48 °FBroken clouds.10 mph50%30.30 "HgN/A
11:20 am46 °FBroken clouds.10 mph53%30.30 "HgN/A
10:50 am48 °FScattered clouds.8 mph54%30.30 "HgN/A
10:20 am46 °FScattered clouds.8 mph62%30.30 "HgN/A
9:50 am45 °FScattered clouds.12 mph66%30.30 "HgN/A
9:20 am43 °FScattered clouds.10 mph71%30.30 "HgN/A
8:50 am41 °FPartly sunny.9 mph76%30.30 "HgN/A
8:20 am41 °FPartly sunny.9 mph81%30.30 "HgN/A
7:50 am41 °FPartly sunny.7 mph76%30.27 "HgN/A
7:20 am41 °FPartly sunny.7 mph76%30.27 "HgN/A
6:50 am39 °FPartly sunny.7 mph81%30.27 "HgN/A
6:20 am39 °FPassing clouds.8 mph81%30.27 "HgN/A
5:50 am39 °FPassing clouds.6 mph81%30.27 "HgN/A
5:20 am39 °FPassing clouds.6 mph81%30.27 "HgN/A
4:50 am39 °FPassing clouds.7 mph81%30.27 "HgN/A
4:20 am39 °FPassing clouds.7 mph81%30.27 "HgN/A
3:50 am39 °FClear.7 mph81%30.27 "Hg10 mi
3:20 am39 °FPassing clouds.7 mph81%30.27 "HgN/A
2:50 am39 °FPassing clouds.6 mph81%30.27 "HgN/A
2:20 am41 °FPassing clouds.7 mph76%30.27 "HgN/A
1:50 am41 °FPassing clouds.7 mph76%30.27 "HgN/A
1:20 am43 °FPartly cloudy.7 mph71%30.27 "HgN/A
Weather by CustomWeather, © 2017

See weather overviewHow to use our weather pages